Regional Weather Roundup
Issued by NWS Newport/Morehead, NC

Current Version | Previous Version | Graphics & Text | Print | Product List | Glossary Off
Versions: 1 2 3 4 5 6 7 8 9 10 11 12 13 14 15 16 17 18 19 20 21 22 23 24 25 26 27 28 29 30 31 32 33 34 35 36 37 38 39 40 41 42 43 44 45 46 47 48 49 50

000
ASUS42 KMHX 291813
RWRMHX
WEATHER ROUNDUP FOR EASTERN NORTH CAROLINA
NATIONAL WEATHER SERVICE NEWPORT/MOREHEAD CITY NC
200 PM EDT MON JUN 29 2015

NOTE: "FAIR" INDICATES FEW OR NO CLOUDS BELOW 12,000 FEET
WITH NO SIGNIFICANT WEATHER AND/OR OBSTRUCTIONS TO VISIBILITY

NCZ015>017-031-032-045>047-102-103-291900-
NORTH COAST

CITY           SKY/WX    TMP DP  RH WIND       PRES   REMARKS
EDENTON          N/A     83  68  61 E7        29.98F
ELIZABETH CITY SUNNY     82  64  54 E8        29.99F
KITTY HAWK     CLEAR     85  62  46 E6        29.99S
MANTEO         MOSUNNY   81  66  61 E8        30.00S

$$

NCZ045>047-081-094-103-104-291900-
CENTRAL COAST

CITY           SKY/WX    TMP DP  RH WIND       PRES   REMARKS
FRISCO         PTSUNNY   83  69  62 SE9       29.99F
SWANQUARTER      N/A     82 N/A N/A SE9G16    29.94S

$$

NCZ095-097-098-100-101-291900-
SOUTHERN COAST

CITY           SKY/WX    TMP DP  RH WIND       PRES   REMARKS
BEAUFORT       PTSUNNY   81  69  67 SE8       29.98S
CEDAR ISLAND     N/A     82 N/A N/A SE7G16    30.03S
JACKSONVILLE   SUNNY     84  65  52 SE12      29.97F
PINEY ISLAND   MOCLDY   N/A N/A N/A E12       29.98F
WILMINGTON     MOSUNNY   84  67  56 SE10      29.96F


$$

NCZ011>013-027>030-043-044-078>080-089-090>093-098-291900-
COASTAL PLAIN

CITY           SKY/WX    TMP DP  RH WIND       PRES   REMARKS
AHOSKIE        SUNNY     82  62  51 SE6       29.98F
CLINTON        CLOUDY    83  69  62 CALM      29.96F
ELIZABETHTOWN  MOSUNNY   87  65  47 SW6       29.96F
GOLDSBORO      MOSUNNY   85  64  49 VRB5      29.94F
GREENVILLE     SUNNY     86  61  42 S3        29.99F
HAVELOCK       MOSUNNY   85  66  53 S8        29.98F
KENANSVILLE    MOSUNNY   84  65  52 E5        29.97F
KINSTON        MOSUNNY   84  64  51 SE5       29.97F
NEW BERN         N/A     85  67  54 SE8       29.99S
RICHLANDS      MOSUNNY   84  64  51 SE9G16    29.97S
ROCKY MOUNT    MOSUNNY   87  59  38 S6        29.97F
WASHINGTON     PTSUNNY   82  67  60 S9        29.98S
WHITEVILLE     PTSUNNY   86  64  46 W3        29.95F

$$

AMZ130-135-150-152-154-156-158-170-250-252-270-ANZ085-086-088-633-658-670-291900-
MARINE OBSERVATIONS

STATION/POSITION TIME  TEMP    WIND        PRES    WAVE   SWELL
                       AIR SEA DIR/SP/G            HT/PER HT/PER
                 (UTC) (F)     (DEG/KT/KT) (MB)    (FT/S) (FT/S)
CHESAPEAKE LIGHT 1800   74     120/  3/  3 1016.4
64 E VA BEACH    1750   77 77  320/  2/  4 1015.6    4/ 8   3/ 8
DUCK             1700   76 70   60/  6/  7 1015.2
2 E DUCK         1711      76                N/A     2/ 9
OREGON INLET     1700   78 70   80/  7/ 10 1016.0
13E OREGON INLT  1800      75                N/A     4/ 8
HATTERAS CG      1700   80 80  140/  6/ 11 1015.4
DIAMOND BUOY     1750   79 81  170/  8/ 10 1015.3    4/ 8   3/ 8
CAPE LOOKOUT     1800   79     120/  7/  8 1015.0
BEAUFORT LAB     1700   80 81  150/  7/ 12 1014.5
30 SE NEW RVR IN 1708   80 81  140/  8/ 10 1015.5
27 SE WRIGHTSVLE 1700      81  130/  2/  4   N/A
5 SE WRIGHTSVLE  1708   78 80  120/  6/ 10 1015.2
225 S CAPE HAT   1750   80 80  200/ 12/ 16 1018.8    6/ 7   5/ 7
41 SE CHARLESTON 1750   81 83  250/ 10/ 14 1015.1    4/ 7   3/ 7

$$


USA.gov is the U.S. government's official web portal to all federal, state and local government web resources and services.